| time (UTC) | temp F | wind direction | speed MPH | gust MPH | rain 1hr in | rain 24hr in | rain mn in | humidity % | barometer mb |
| 20260904221606 | 69 | 297 | 1.0 | 2.0 | 0.00 | 0.10 | 0.01 | 87 | 1011.4 |
| 20260904221104 | 69 | 300 | 1.0 | 2.0 | 0.00 | 0.10 | 0.01 | 87 | 1011.5 |
| 20260904220600 | 69 | 315 | 1.0 | 2.0 | 0.00 | 0.10 | 0.01 | 87 | 1011.3 |
| 20260904220119 | 69 | 301 | 1.0 | 3.0 | 0.00 | 0.10 | 0.01 | 86 | 1011.2 |
| 20260904215559 | 69 | 319 | 1.0 | 3.0 | 0.00 | 0.10 | 0.01 | 86 | 1011.3 |
| 20260904215100 | 70 | 299 | 1.0 | 3.0 | 0.00 | 0.10 | 0.01 | 86 | 1011.3 |
| 20260904214620 | 70 | 316 | 1.0 | 2.0 | 0.00 | 0.10 | 0.01 | 86 | 1011.4 |
| 20260904214100 | 70 | 300 | 0.0 | 3.0 | 0.00 | 0.10 | 0.01 | 86 | 1011.3 |
| 20260904213600 | 70 | 307 | 0.0 | 3.0 | 0.00 | 0.10 | 0.01 | 86 | 1011.3 |
| 20260904213107 | 70 | 303 | 0.0 | 3.0 | 0.00 | 0.10 | 0.01 | 86 | 1011.4 |
| 20260904212600 | 70 | 308 | 1.0 | 3.0 | 0.00 | 0.10 | 0.01 | 86 | 1011.4 |
| 20260904212059 | 70 | 297 | 1.0 | 3.0 | 0.00 | 0.10 | 0.01 | 86 | 1011.5 |
| 20260904211608 | 70 | 311 | 1.0 | 3.0 | 0.00 | 0.10 | 0.01 | 87 | 1011.5 |
| 20260904211059 | 70 | 314 | 1.0 | 3.0 | 0.00 | 0.10 | 0.01 | 87 | 1011.4 |
| 20260904210601 | 70 | 311 | 1.0 | 4.0 | 0.00 | 0.10 | 0.01 | 87 | 1011.4 |
| 20260904210119 | 70 | 320 | 1.0 | 4.0 | 0.00 | 0.10 | 0.01 | 86 | 1011.4 |
| 20260904205602 | 71 | 345 | 1.0 | 3.0 | 0.00 | 0.10 | 0.01 | 86 | 1011.4 |
| 20260904205059 | 71 | 323 | 1.0 | 3.0 | 0.00 | 0.10 | 0.01 | 86 | 1011.4 |
| 20260904204604 | 71 | 326 | 0.0 | 3.0 | 0.00 | 0.10 | 0.01 | 86 | 1011.4 |
| 20260904204100 | 71 | 318 | 1.0 | 3.0 | 0.00 | 0.10 | 0.01 | 86 | 1011.4 |
| 20260904203602 | 70 | 302 | 1.0 | 3.0 | 0.00 | 0.10 | 0.01 | 86 | 1011.3 |
| 20260904203107 | 71 | 0 | 1.0 | 3.0 | 0.00 | 0.10 | 0.01 | 86 | 1011.4 |
| 20260904202600 | 71 | 281 | 0.0 | 2.0 | 0.00 | 0.10 | 0.01 | 86 | 1011.4 |
| 20260904202100 | 71 | 303 | 0.0 | 2.0 | 0.00 | 0.10 | 0.01 | 85 | 1011.5 |
| 20260904201604 | 71 | 297 | 1.0 | 2.0 | 0.00 | 0.10 | 0.01 | 84 | 1011.5 |
| 20260904201059 | 71 | 298 | 0.0 | 3.0 | 0.00 | 0.10 | 0.01 | 84 | 1011.4 |
| 20260904200559 | 71 | 301 | 1.0 | 3.0 | 0.00 | 0.10 | 0.01 | 83 | 1011.5 |
| 20260904200107 | 71 | 0 | 1.0 | 3.0 | 0.00 | 0.10 | 0.01 | 83 | 1011.4 |
| 20260904195600 | 71 | 299 | 1.0 | 3.0 | 0.00 | 0.10 | 0.01 | 82 | 1011.4 |
| 20260904195101 | 71 | 0 | 1.0 | 3.0 | 0.00 | 0.10 | 0.01 | 82 | 1011.5 |
| 20260904194612 | 71 | 320 | 1.0 | 2.0 | 0.00 | 0.10 | 0.01 | 82 | 1011.4 |
| 20260904194100 | 71 | 340 | 0.0 | 2.0 | 0.00 | 0.10 | 0.01 | 82 | 1011.5 |
| 20260904193600 | 72 | 301 | 0.0 | 2.0 | 0.00 | 0.10 | 0.01 | 81 | 1011.7 |
| 20260904193116 | 72 | 0 | 0.0 | 3.0 | 0.00 | 0.10 | 0.01 | 82 | 1011.5 |
| 20260904192559 | 71 | 356 | 0.0 | 3.0 | 0.00 | 0.10 | 0.01 | 82 | 1011.6 |
| 20260904192059 | 71 | 0 | 0.0 | 2.0 | 0.00 | 0.10 | 0.01 | 82 | 1011.7 |
| 20260904191601 | 71 | 290 | 0.0 | 3.0 | 0.00 | 0.10 | 0.01 | 80 | 1011.7 |
| 20260904191100 | 72 | 0 | 0.0 | 5.0 | 0.00 | 0.10 | 0.01 | 81 | 1011.6 |
| 20260904190600 | 72 | 0 | 0.0 | 6.0 | 0.00 | 0.10 | 0.01 | 79 | 1011.6 |
| 20260904190106 | 72 | 0 | 2.0 | 8.0 | 0.00 | 0.10 | 0.01 | 78 | 1011.6 |
| 20260904185603 | 73 | 36 | 1.0 | 8.0 | 0.00 | 0.10 | 0.01 | 79 | 1011.6 |
| 20260904185105 | 74 | 0 | 2.0 | 8.0 | 0.00 | 0.10 | 0.01 | 79 | 1011.6 |
| 20260904184621 | 73 | 0 | 1.0 | 3.0 | 0.00 | 0.10 | 0.01 | 80 | 1011.6 |
| 20260904184100 | 73 | 0 | 1.0 | 3.0 | 0.00 | 0.10 | 0.01 | 79 | 1011.6 |
| 20260904183600 | 72 | 305 | 0.0 | 3.0 | 0.00 | 0.10 | 0.01 | 78 | 1011.6 |
| 20260904183102 | 72 | 0 | 0.0 | 4.0 | 0.00 | 0.10 | 0.01 | 78 | 1011.6 |
| 20260904182600 | 73 | 0 | 1.0 | 6.0 | 0.00 | 0.10 | 0.01 | 77 | 1011.6 |
| 20260904182059 | 74 | 324 | 1.0 | 6.0 | 0.00 | 0.10 | 0.01 | 74 | 1011.6 |
| 20260904181612 | 74 | 0 | 2.0 | 6.0 | 0.00 | 0.10 | 0.01 | 68 | 1011.5 |
| 20260904181103 | 75 | 188 | 0.0 | 4.0 | 0.00 | 0.10 | 0.01 | 75 | 1011.6 |
| 20260904180559 | 76 | 301 | 0.0 | 7.0 | 0.00 | 0.10 | 0.01 | 73 | 1011.5 |
| 20260904180119 | 75 | 0 | 0.0 | 7.0 | 0.00 | 0.10 | 0.01 | 78 | 1011.7 |
| 20260904175602 | 73 | 347 | 0.0 | 7.0 | 0.00 | 0.10 | 0.01 | 78 | 1011.7 |
| 20260904175059 | 73 | 307 | 1.0 | 4.0 | 0.00 | 0.10 | 0.01 | 75 | 1011.7 |
| 20260904174620 | 74 | 121 | 1.0 | 4.0 | 0.00 | 0.10 | 0.01 | 72 | 1011.8 |
| 20260904174100 | 75 | 0 | 1.0 | 7.0 | 0.00 | 0.10 | 0.01 | 70 | 1011.7 |
| 20260904173559 | 76 | 313 | 0.0 | 7.0 | 0.00 | 0.10 | 0.01 | 69 | 1011.7 |
| 20260904173110 | 75 | 0 | 3.0 | 7.0 | 0.00 | 0.10 | 0.01 | 71 | 1011.6 |
| 20260904172559 | 74 | 0 | 0.0 | 3.0 | 0.00 | 0.10 | 0.01 | 80 | 1011.8 |
| 20260904172059 | 73 | 0 | 0.0 | 9.0 | 0.00 | 0.10 | 0.01 | 80 | 1011.8 |
| 20260904171606 | 74 | 0 | 2.0 | 9.0 | 0.00 | 0.10 | 0.01 | 76 | 1011.8 |
| 20260904171100 | 75 | 13 | 4.0 | 9.0 | 0.00 | 0.10 | 0.01 | 70 | 1011.7 |
| 20260904170558 | 75 | 68 | 1.0 | 6.0 | 0.00 | 0.10 | 0.01 | 79 | 1011.7 |
| 20260904165558 | 73 | 0 | 1.0 | 6.0 | 0.00 | 0.10 | 0.01 | 80 | 1012.0 |
| 20260904165058 | 74 | 360 | 1.0 | 6.0 | 0.00 | 0.10 | 0.01 | 76 | 1011.9 |
| 20260904164602 | 74 | 1 | 2.0 | 6.0 | 0.00 | 0.10 | 0.01 | 73 | 1012.0 |
| 20260904164059 | 72 | 353 | 0.0 | 4.0 | 0.00 | 0.10 | 0.01 | 83 | 1011.9 |
| 20260904163559 | 72 | 44 | 1.0 | 4.0 | 0.00 | 0.10 | 0.01 | 82 | 1012.1 |
| 20260904163111 | 72 | 311 | 1.0 | 6.0 | 0.00 | 0.10 | 0.01 | 80 | 1012.0 |
| 20260904162559 | 74 | 0 | 1.0 | 9.0 | 0.00 | 0.10 | 0.01 | 78 | 1012.1 |
| 20260904162058 | 75 | 77 | 2.0 | 9.0 | 0.00 | 0.10 | 0.01 | 74 | 1012.1 |
| 20260904161605 | 74 | 25 | 2.0 | 7.0 | 0.00 | 0.10 | 0.01 | 77 | 1012.1 |
| 20260904161102 | 72 | 0 | 0.0 | 4.0 | 0.00 | 0.10 | 0.01 | 85 | 1012.3 |
| 20260904160601 | 71 | 290 | 2.0 | 4.0 | 0.00 | 0.10 | 0.01 | 83 | 1012.3 |
| 20260904160106 | 71 | 344 | 1.0 | 7.0 | 0.00 | 0.10 | 0.01 | 81 | 1012.4 |
| 20260904155602 | 72 | 288 | 2.0 | 7.0 | 0.00 | 0.10 | 0.01 | 79 | 1012.4 |
| 20260904155101 | 73 | 44 | 0.0 | 6.0 | 0.00 | 0.10 | 0.01 | 75 | 1012.2 |
| 20260904154606 | 73 | 0 | 2.0 | 5.0 | 0.00 | 0.10 | 0.01 | 74 | 1012.4 |
| 20260904154102 | 72 | 300 | 1.0 | 7.0 | 0.00 | 0.10 | 0.01 | 78 | 1012.4 |
| 20260904153559 | 73 | 0 | 3.0 | 8.0 | 0.00 | 0.10 | 0.01 | 78 | 1012.5 |
| 20260904153124 | 74 | 79 | 3.0 | 8.0 | 0.00 | 0.10 | 0.01 | 74 | 1012.6 |
| 20260904152558 | 74 | 39 | 0.0 | 4.0 | 0.00 | 0.10 | 0.01 | 84 | 1012.5 |
| 20260904152058 | 74 | 0 | 1.0 | 4.0 | 0.00 | 0.10 | 0.01 | 79 | 1012.6 |
| 20260904151606 | 73 | 52 | 1.0 | 5.0 | 0.00 | 0.10 | 0.01 | 88 | 1012.7 |
| 20260904151100 | 73 | 0 | 0.0 | 6.0 | 0.00 | 0.10 | 0.01 | 80 | 1012.5 |
| 20260904150559 | 73 | 50 | 1.0 | 6.0 | 0.00 | 0.10 | 0.01 | 79 | 1012.6 |
| 20260904150103 | 73 | 0 | 1.0 | 6.0 | 0.00 | 0.10 | 0.01 | 81 | 1012.8 |
| 20260904145558 | 72 | 0 | 1.0 | 3.0 | 0.00 | 0.10 | 0.01 | 84 | 1012.7 |
| 20260904145058 | 71 | 1 | 1.0 | 5.0 | 0.00 | 0.10 | 0.01 | 86 | 1012.7 |
| 20260904144603 | 72 | 305 | 0.0 | 5.0 | 0.00 | 0.10 | 0.01 | 83 | 1012.7 |
| 20260904144059 | 73 | 41 | 0.0 | 5.0 | 0.00 | 0.10 | 0.01 | 80 | 1012.7 |
| 20260904143600 | 73 | 0 | 0.0 | 6.0 | 0.00 | 0.10 | 0.01 | 80 | 1012.5 |
| 20260904143106 | 73 | 0 | 1.0 | 6.0 | 0.00 | 0.10 | 0.01 | 81 | 1012.6 |
| 20260904142600 | 73 | 0 | 2.0 | 6.0 | 0.00 | 0.10 | 0.01 | 80 | 1012.6 |
| 20260904142101 | 72 | 153 | 0.0 | 3.0 | 0.00 | 0.10 | 0.01 | 81 | 1012.6 |
| 20260904141604 | 72 | 132 | 0.0 | 3.0 | 0.00 | 0.10 | 0.01 | 83 | 1012.7 |
| 20260904141059 | 71 | 0 | 1.0 | 3.0 | 0.00 | 0.10 | 0.01 | 84 | 1012.6 |
| 20260904140559 | 71 | 36 | 1.0 | 3.0 | 0.00 | 0.10 | 0.01 | 85 | 1012.7 |
| 20260904135600 | 70 | 0 | 1.0 | 4.0 | 0.00 | 0.10 | 0.01 | 86 | 1012.7 |
| 20260904135100 | 70 | 0 | 0.0 | 3.0 | 0.00 | 0.10 | 0.01 | 85 | 1012.8 |
| 20260904134605 | 70 | 161 | 1.0 | 4.0 | 0.00 | 0.10 | 0.01 | 89 | 1012.7 |
| 20260904134059 | 70 | 143 | 1.0 | 4.0 | 0.00 | 0.10 | 0.01 | 89 | 1012.7 |
| 20260904133559 | 69 | 124 | 2.0 | 3.0 | 0.00 | 0.10 | 0.01 | 90 | 1012.7 |
| 20260904133113 | 68 | 154 | 1.0 | 4.0 | 0.00 | 0.10 | 0.01 | 90 | 1012.7 |
| 20260904132600 | 68 | 176 | 1.0 | 5.0 | 0.00 | 0.10 | 0.01 | 90 | 1012.7 |
| 20260904132101 | 68 | 121 | 2.0 | 5.0 | 0.00 | 0.10 | 0.01 | 92 | 1012.7 |
| 20260904131609 | 67 | 125 | 2.0 | 4.0 | 0.00 | 0.10 | 0.01 | 92 | 1012.6 |
| 20260904131059 | 67 | 131 | 1.0 | 4.0 | 0.00 | 0.10 | 0.01 | 93 | 1012.7 |
| 20260904130559 | 65 | 150 | 0.0 | 5.0 | 0.00 | 0.10 | 0.01 | 93 | 1012.7 |
| 20260904130107 | 65 | 121 | 1.0 | 5.0 | 0.00 | 0.10 | 0.01 | 93 | 1012.7 |
| 20260904125600 | 65 | 185 | 2.0 | 5.0 | 0.00 | 0.10 | 0.01 | 94 | 1012.6 |
| 20260904125100 | 65 | 193 | 2.0 | 5.0 | 0.00 | 0.10 | 0.01 | 95 | 1012.8 |
| 20260904124611 | 64 | 0 | 2.0 | 5.0 | 0.00 | 0.10 | 0.01 | 95 | 1012.8 |
| 20260904124059 | 63 | 157 | 1.0 | 4.0 | 0.00 | 0.10 | 0.01 | 95 | 1012.9 |
| 20260904123602 | 63 | 181 | 1.0 | 4.0 | 0.00 | 0.10 | 0.01 | 95 | 1012.9 |
| 20260904123116 | 63 | 136 | 1.0 | 4.0 | 0.00 | 0.10 | 0.01 | 96 | 1013.0 |
| 20260904122601 | 62 | 141 | 1.0 | 3.0 | 0.00 | 0.10 | 0.01 | 96 | 1012.9 |
| 20260904122101 | 62 | 0 | 0.0 | 3.0 | 0.00 | 0.10 | 0.01 | 96 | 1013.0 |
| 20260904121605 | 61 | 117 | 1.0 | 3.0 | 0.00 | 0.10 | 0.01 | 96 | 1013.0 |
| 20260904121059 | 60 | 117 | 0.0 | 2.0 | 0.00 | 0.10 | 0.01 | 96 | 1012.9 |
| 20260904120600 | 60 | 0 | 0.0 | 2.0 | 0.00 | 0.10 | 0.01 | 96 | 1012.8 |
| 20260904120106 | 60 | 42 | 0.0 | 2.0 | 0.00 | 0.10 | 0.01 | 96 | 1012.8 |
| 20260904115600 | 60 | 0 | 0.0 | 1.0 | 0.00 | 0.11 | 0.01 | 96 | 1012.7 |
| 20260904115100 | 60 | 0 | 0.0 | 1.0 | 0.00 | 0.11 | 0.01 | 96 | 1012.7 |
| 20260904114604 | 59 | 129 | 0.0 | 2.0 | 0.00 | 0.11 | 0.01 | 95 | 1012.8 |
| 20260904114100 | 59 | 0 | 0.0 | 2.0 | 0.00 | 0.11 | 0.01 | 95 | 1012.8 |
| 20260904113600 | 59 | 141 | 0.0 | 2.0 | 0.00 | 0.11 | 0.01 | 96 | 1012.9 |
| 20260904113103 | 59 | 0 | 0.0 | 2.0 | 0.00 | 0.11 | 0.01 | 95 | 1012.8 |
| 20260904112602 | 58 | 0 | 0.0 | 1.0 | 0.00 | 0.11 | 0.01 | 95 | 1012.8 |
| 20260904112059 | 58 | 146 | 0.0 | 0.0 | 0.01 | 0.11 | 0.01 | 95 | 1012.7 |
| 20260904111609 | 58 | 0 | 0.0 | 1.0 | 0.01 | 0.11 | 0.01 | 95 | 1012.5 |
| 20260904111059 | 58 | 0 | 0.0 | 1.0 | 0.01 | 0.11 | 0.01 | 95 | 1012.7 |
| 20260904110600 | 58 | 0 | 0.0 | 1.0 | 0.01 | 0.11 | 0.01 | 95 | 1012.6 |
| 20260904110108 | 58 | 0 | 0.0 | 2.0 | 0.01 | 0.11 | 0.01 | 95 | 1012.5 |
| 20260904105601 | 58 | 0 | 0.0 | 2.0 | 0.01 | 0.11 | 0.01 | 95 | 1012.2 |
| 20260904105100 | 58 | 0 | 0.0 | 2.0 | 0.01 | 0.11 | 0.01 | 95 | 1012.1 |
| 20260904104604 | 58 | 0 | 0.0 | 2.0 | 0.01 | 0.11 | 0.01 | 95 | 1012.0 |
| 20260904104059 | 58 | 0 | 0.0 | 1.0 | 0.01 | 0.11 | 0.01 | 95 | 1012.1 |
| 20260904103559 | 58 | 0 | 0.0 | 0.0 | 0.01 | 0.11 | 0.01 | 95 | 1012.0 |
| 20260904103102 | 58 | 0 | 0.0 | 0.0 | 0.01 | 0.11 | 0.01 | 95 | 1012.0 |
| 20260904102600 | 58 | 0 | 0.0 | 0.0 | 0.01 | 0.11 | 0.01 | 95 | 1011.9 |
| 20260904102100 | 58 | 0 | 0.0 | 0.0 | 0.00 | 0.10 | 0.00 | 95 | 1012.0 |
| 20260904101612 | 58 | 0 | 0.0 | 0.0 | 0.00 | 0.10 | 0.00 | 95 | 1011.9 |
| 20260904101102 | 58 | 0 | 0.0 | 0.0 | 0.00 | 0.10 | 0.00 | 95 | 1011.9 |
| 20260904100559 | 58 | 0 | 0.0 | 1.0 | 0.00 | 0.10 | 0.00 | 95 | 1011.9 |
| 20260904100105 | 58 | 0 | 0.0 | 1.0 | 0.00 | 0.10 | 0.00 | 95 | 1011.9 |
| 20260904095558 | 58 | 0 | 0.0 | 1.0 | 0.00 | 0.10 | 0.00 | 95 | 1011.9 |
| 20260904095100 | 58 | 0 | 0.0 | 1.0 | 0.00 | 0.10 | 0.00 | 95 | 1011.7 |
| 20260904094603 | 58 | 0 | 0.0 | 1.0 | 0.00 | 0.10 | 0.00 | 95 | 1011.8 |
| 20260904094059 | 58 | 0 | 0.0 | 1.0 | 0.00 | 0.10 | 0.00 | 95 | 1011.8 |
| 20260904093632 | 59 | 0 | 0.0 | 1.0 | 0.00 | 0.10 | 0.00 | 95 | 1011.8 |
| 20260904093118 | 59 | 0 | 0.0 | 1.0 | 0.00 | 0.10 | 0.00 | 95 | 1011.7 |
| 20260904092559 | 59 | 0 | 0.0 | 1.0 | 0.00 | 0.10 | 0.00 | 95 | 1011.6 |
| 20260904092102 | 59 | 45 | 0.0 | 2.0 | 0.00 | 0.10 | 0.00 | 95 | 1011.7 |
| 20260904091606 | 59 | 0 | 0.0 | 2.0 | 0.00 | 0.10 | 0.00 | 95 | 1011.5 |
| 20260904091059 | 59 | 240 | 0.0 | 3.0 | 0.00 | 0.10 | 0.00 | 95 | 1011.5 |
| 20260904090600 | 59 | 276 | 0.0 | 4.0 | 0.00 | 0.10 | 0.00 | 95 | 1011.6 |
| 20260904090107 | 59 | 313 | 2.0 | 4.0 | 0.00 | 0.10 | 0.00 | 95 | 1011.6 |
| 20260904085603 | 59 | 69 | 0.0 | 1.0 | 0.00 | 0.10 | 0.00 | 95 | 1011.4 |
| 20260904085100 | 59 | 0 | 0.0 | 1.0 | 0.00 | 0.10 | 0.00 | 95 | 1011.4 |
| 20260904084603 | 59 | 248 | 0.0 | 1.0 | 0.00 | 0.10 | 0.00 | 95 | 1011.5 |
| 20260904084103 | 59 | 0 | 0.0 | 1.0 | 0.00 | 0.10 | 0.00 | 95 | 1011.6 |
| 20260904083603 | 59 | 0 | 0.0 | 2.0 | 0.00 | 0.10 | 0.00 | 95 | 1011.5 |
| 20260904083105 | 59 | 0 | 0.0 | 2.0 | 0.00 | 0.10 | 0.00 | 95 | 1011.6 |
| 20260904082601 | 59 | 0 | 0.0 | 2.0 | 0.00 | 0.10 | 0.00 | 95 | 1011.6 |
| 20260904082059 | 59 | 0 | 0.0 | 0.0 | 0.00 | 0.10 | 0.00 | 95 | 1011.7 |
| 20260904081604 | 59 | 0 | 0.0 | 2.0 | 0.00 | 0.10 | 0.00 | 95 | 1011.7 |
| 20260904081102 | 60 | 0 | 0.0 | 2.0 | 0.00 | 0.10 | 0.00 | 95 | 1011.7 |
| 20260904080601 | 60 | 355 | 1.0 | 2.0 | 0.00 | 0.10 | 0.00 | 95 | 1011.6 |
| 20260904080104 | 60 | 0 | 0.0 | 1.0 | 0.00 | 0.10 | 0.00 | 95 | 1011.6 |
| 20260904075600 | 60 | 0 | 0.0 | 1.0 | 0.00 | 0.10 | 0.00 | 95 | 1011.4 |
| 20260904075058 | 60 | 0 | 0.0 | 1.0 | 0.00 | 0.10 | 0.00 | 95 | 1011.5 |
| 20260904074600 | 60 | 0 | 0.0 | 2.0 | 0.00 | 0.10 | 0.00 | 95 | 1011.5 |
| 20260904074102 | 60 | 0 | 0.0 | 2.0 | 0.00 | 0.10 | 0.00 | 95 | 1011.4 |
| 20260904073601 | 60 | 0 | 0.0 | 3.0 | 0.00 | 0.10 | 0.00 | 95 | 1011.5 |
| 20260904073102 | 60 | 0 | 0.0 | 3.0 | 0.00 | 0.10 | 0.00 | 95 | 1011.5 |
| 20260904072601 | 60 | 182 | 0.0 | 3.0 | 0.00 | 0.10 | 0.00 | 95 | 1011.6 |
| 20260904072100 | 60 | 0 | 0.0 | 1.0 | 0.00 | 0.10 | 0.00 | 95 | 1011.6 |
| 20260904071605 | 60 | 0 | 0.0 | 0.0 | 0.00 | 0.10 | 0.00 | 95 | 1011.7 |
| 20260904071059 | 60 | 0 | 0.0 | 1.0 | 0.00 | 0.10 | 0.00 | 95 | 1011.7 |
| 20260904070600 | 60 | 0 | 0.0 | 1.0 | 0.00 | 0.10 | 0.00 | 95 | 1011.6 |
| 20260904065559 | 60 | 0 | 0.0 | 0.0 | 0.00 | 0.10 | 0.00 | 95 | 1011.7 |
| 20260904065103 | 60 | 0 | 0.0 | 0.0 | 0.00 | 0.10 | 0.00 | 95 | 1011.7 |
| 20260904064602 | 60 | 0 | 0.0 | 0.0 | 0.00 | 0.10 | 0.00 | 95 | 1011.6 |
| 20260904064100 | 60 | 0 | 0.0 | 0.0 | 0.00 | 0.10 | 0.00 | 95 | 1011.6 |
| 20260904063601 | 60 | 0 | 0.0 | 0.0 | 0.00 | 0.10 | 0.00 | 95 | 1011.6 |
| 20260904063103 | 60 | 0 | 0.0 | 1.0 | 0.00 | 0.10 | 0.00 | 95 | 1011.6 |
| 20260904062558 | 60 | 0 | 0.0 | 1.0 | 0.00 | 0.10 | 0.00 | 95 | 1011.7 |
| 20260904062059 | 60 | 0 | 0.0 | 0.0 | 0.00 | 0.10 | 0.00 | 95 | 1011.7 |
| 20260904061601 | 60 | 0 | 0.0 | 0.0 | 0.00 | 0.10 | 0.00 | 95 | 1011.8 |
| 20260904061100 | 60 | 0 | 0.0 | 0.0 | 0.00 | 0.10 | 0.00 | 95 | 1011.8 |
| 20260904060600 | 60 | 0 | 0.0 | 0.0 | 0.00 | 0.10 | 0.00 | 95 | 1011.9 |
| 20260904060106 | 60 | 0 | 0.0 | 0.0 | 0.00 | 0.10 | 0.00 | 95 | 1012.0 |
| 20260904055600 | 60 | 0 | 0.0 | 0.0 | 0.00 | 0.10 | 0.00 | 95 | 1012.1 |
| 20260904055059 | 60 | 0 | 0.0 | 1.0 | 0.00 | 0.10 | 0.00 | 95 | 1012.2 |
| 20260904054602 | 61 | 0 | 0.0 | 1.0 | 0.00 | 0.10 | 0.00 | 95 | 1012.1 |
| 20260904054103 | 61 | 0 | 0.0 | 1.0 | 0.00 | 0.10 | 0.00 | 95 | 1012.2 |
| 20260904053557 | 61 | 0 | 0.0 | 0.0 | 0.00 | 0.10 | 0.00 | 95 | 1012.3 |
| 20260904053106 | 61 | 0 | 0.0 | 0.0 | 0.00 | 0.10 | 0.00 | 95 | 1012.3 |
| 20260904052600 | 61 | 0 | 0.0 | 0.0 | 0.00 | 0.10 | 0.00 | 95 | 1012.4 |
| 20260904052059 | 61 | 0 | 0.0 | 0.0 | 0.00 | 0.10 | 0.00 | 95 | 1012.6 |
| 20260904051604 | 61 | 0 | 0.0 | 0.0 | 0.00 | 0.10 | 0.00 | 95 | 1012.7 |
| 20260904051100 | 61 | 0 | 0.0 | 0.0 | 0.00 | 0.10 | 0.00 | 94 | 1012.7 |
| 20260904050558 | 61 | 0 | 0.0 | 0.0 | 0.00 | 0.10 | 0.00 | 95 | 1012.7 |
| 20260904050107 | 61 | 0 | 0.0 | 0.0 | 0.00 | 0.10 | 0.00 | 95 | 1012.7 |
| 20260904045558 | 61 | 0 | 0.0 | 0.0 | 0.00 | 0.10 | 0.00 | 95 | 1012.7 |
| 20260904045059 | 61 | 0 | 0.0 | 0.0 | 0.00 | 0.10 | 0.00 | 95 | 1012.8 |
| 20260904044611 | 61 | 0 | 0.0 | 0.0 | 0.00 | 0.10 | 0.00 | 95 | 1012.8 |
| 20260904044059 | 62 | 0 | 0.0 | 0.0 | 0.00 | 0.10 | 0.00 | 95 | 1012.8 |
| 20260904043558 | 62 | 0 | 0.0 | 0.0 | 0.00 | 0.10 | 0.00 | 94 | 1012.8 |
| 20260904043102 | 62 | 0 | 0.0 | 0.0 | 0.00 | 0.10 | 0.00 | 94 | 1012.7 |
| 20260904042557 | 62 | 0 | 0.0 | 0.0 | 0.00 | 0.10 | 0.00 | 94 | 1012.7 |
| 20260904042058 | 62 | 0 | 0.0 | 0.0 | 0.00 | 0.10 | 0.00 | 94 | 1012.6 |
| 20260904041603 | 62 | 0 | 0.0 | 1.0 | 0.00 | 0.10 | 0.00 | 95 | 1012.7 |
| 20260904041100 | 62 | 0 | 0.0 | 1.0 | 0.00 | 0.10 | 0.00 | 94 | 1012.6 |
| 20260904040600 | 62 | 0 | 0.0 | 0.0 | 0.00 | 0.10 | 0.00 | 95 | 1012.8 |
| 20260904040110 | 62 | 0 | 0.0 | 0.0 | 0.00 | 0.10 | 0.00 | 95 | 1012.8 |
| 20260904035557 | 62 | 0 | 0.0 | 1.0 | 0.00 | 0.10 | 0.10 | 95 | 1012.8 |
| 20260904035059 | 62 | 0 | 0.0 | 1.0 | 0.00 | 0.10 | 0.10 | 94 | 1012.8 |
| 20260904034604 | 62 | 0 | 0.0 | 1.0 | 0.00 | 0.10 | 0.10 | 94 | 1012.8 |
| 20260904034057 | 62 | 0 | 0.0 | 1.0 | 0.00 | 0.10 | 0.10 | 94 | 1012.8 |
| 20260904033557 | 62 | 0 | 0.0 | 2.0 | 0.00 | 0.10 | 0.10 | 94 | 1012.8 |
| 20260904033111 | 62 | 0 | 0.0 | 2.0 | 0.00 | 0.10 | 0.10 | 94 | 1013.0 |
| 20260904032600 | 62 | 0 | 0.0 | 1.0 | 0.00 | 0.10 | 0.10 | 94 | 1013.0 |
| 20260904032057 | 62 | 0 | 0.0 | 0.0 | 0.00 | 0.10 | 0.10 | 94 | 1013.2 |
| 20260904031609 | 62 | 0 | 0.0 | 0.0 | 0.00 | 0.10 | 0.10 | 94 | 1013.0 |
| 20260904031101 | 62 | 0 | 0.0 | 0.0 | 0.00 | 0.10 | 0.10 | 94 | 1012.9 |
| 20260904030600 | 62 | 0 | 0.0 | 1.0 | 0.00 | 0.10 | 0.10 | 94 | 1013.1 |
| 20260904025600 | 62 | 0 | 0.0 | 0.0 | 0.00 | 0.10 | 0.10 | 94 | 1013.2 |
| 20260904025059 | 62 | 0 | 0.0 | 1.0 | 0.00 | 0.10 | 0.10 | 94 | 1013.3 |
| 20260904024616 | 63 | 0 | 0.0 | 1.0 | 0.00 | 0.10 | 0.10 | 94 | 1013.3 |
| 20260904024102 | 63 | 0 | 0.0 | 0.0 | 0.00 | 0.10 | 0.10 | 94 | 1013.3 |
| 20260904023600 | 63 | 0 | 0.0 | 0.0 | 0.00 | 0.10 | 0.10 | 94 | 1013.2 |
| 20260904023104 | 63 | 0 | 0.0 | 1.0 | 0.00 | 0.10 | 0.10 | 94 | 1013.2 |
| 20260904022559 | 63 | 0 | 0.0 | 2.0 | 0.00 | 0.10 | 0.10 | 94 | 1013.2 |
| 20260904022100 | 63 | 298 | 0.0 | 2.0 | 0.00 | 0.10 | 0.10 | 94 | 1013.3 |
| 20260904021602 | 63 | 297 | 0.0 | 2.0 | 0.00 | 0.10 | 0.10 | 94 | 1013.4 |
| 20260904021100 | 63 | 310 | 0.0 | 2.0 | 0.00 | 0.10 | 0.10 | 94 | 1013.3 |
| 20260904020600 | 63 | 0 | 0.0 | 2.0 | 0.00 | 0.10 | 0.10 | 94 | 1013.2 |
| 20260904015559 | 63 | 0 | 0.0 | 2.0 | 0.00 | 0.10 | 0.10 | 94 | 1013.2 |
| 20260904015100 | 63 | 0 | 0.0 | 2.0 | 0.00 | 0.10 | 0.10 | 94 | 1013.1 |
| 20260904014602 | 64 | 0 | 0.0 | 1.0 | 0.00 | 0.10 | 0.10 | 94 | 1013.3 |
| 20260904014104 | 64 | 0 | 0.0 | 2.0 | 0.00 | 0.10 | 0.10 | 94 | 1013.2 |
| 20260904013602 | 64 | 208 | 0.0 | 2.0 | 0.00 | 0.10 | 0.10 | 94 | 1013.2 |
| 20260904013111 | 64 | 0 | 0.0 | 3.0 | 0.00 | 0.10 | 0.10 | 94 | 1013.2 |
| 20260904012559 | 64 | 303 | 0.0 | 3.0 | 0.00 | 0.10 | 0.10 | 94 | 1013.3 |
| 20260904012101 | 64 | 0 | 1.0 | 3.0 | 0.00 | 0.10 | 0.10 | 94 | 1013.2 |
| 20260904011614 | 64 | 0 | 0.0 | 1.0 | 0.00 | 0.10 | 0.10 | 94 | 1013.2 |
| 20260904011103 | 65 | 0 | 0.0 | 1.0 | 0.00 | 0.10 | 0.10 | 94 | 1013.2 |
| 20260904010559 | 65 | 0 | 0.0 | 1.0 | 0.00 | 0.10 | 0.10 | 94 | 1013.1 |
| 20260904010111 | 65 | 275 | 0.0 | 1.0 | 0.00 | 0.10 | 0.10 | 93 | 1013.1 |
| 20260904005559 | 65 | 0 | 0.0 | 1.0 | 0.00 | 0.10 | 0.10 | 94 | 1013.2 |
| 20260904005100 | 65 | 0 | 0.0 | 1.0 | 0.00 | 0.10 | 0.10 | 94 | 1013.1 |
| 20260904004604 | 65 | 0 | 0.0 | 1.0 | 0.00 | 0.10 | 0.10 | 93 | 1013.1 |
| 20260904004100 | 65 | 0 | 0.0 | 2.0 | 0.00 | 0.10 | 0.10 | 93 | 1013.0 |
| 20260904003559 | 65 | 0 | 0.0 | 2.0 | 0.00 | 0.10 | 0.10 | 93 | 1013.0 |
| 20260904003102 | 66 | 275 | 0.0 | 2.0 | 0.00 | 0.10 | 0.10 | 93 | 1013.0 |
| 20260904002559 | 66 | 0 | 0.0 | 1.0 | 0.00 | 0.10 | 0.10 | 93 | 1012.9 |
| 20260904002059 | 66 | 0 | 0.0 | 1.0 | 0.00 | 0.10 | 0.10 | 93 | 1012.9 |
| 20260904001601 | 66 | 297 | 0.0 | 2.0 | 0.00 | 0.10 | 0.10 | 93 | 1012.8 |
| 20260904001059 | 67 | 271 | 0.0 | 2.0 | 0.00 | 0.10 | 0.10 | 93 | 1012.6 |
| 20260904000604 | 67 | 264 | 0.0 | 2.0 | 0.00 | 0.10 | 0.10 | 93 | 1012.5 |
| 20260904000105 | 67 | 296 | 0.0 | 2.0 | 0.00 | 0.10 | 0.10 | 93 | 1012.5 |
| 20260903235602 | 67 | 342 | 0.0 | 1.0 | 0.00 | 0.10 | 0.10 | 93 | 1012.6 |
| 20260903235100 | 67 | 323 | 0.0 | 1.0 | 0.00 | 0.10 | 0.10 | 93 | 1012.4 |
| 20260903234603 | 68 | 0 | 0.0 | 1.0 | 0.00 | 0.10 | 0.10 | 93 | 1012.2 |
| 20260903234100 | 68 | 0 | 0.0 | 2.0 | 0.00 | 0.10 | 0.10 | 93 | 1012.1 |
| 20260903233602 | 68 | 186 | 0.0 | 2.0 | 0.00 | 0.10 | 0.10 | 93 | 1011.9 |
| 20260903233102 | 68 | 0 | 0.0 | 2.0 | 0.00 | 0.10 | 0.10 | 93 | 1011.9 |
| 20260903232559 | 68 | 0 | 0.0 | 2.0 | 0.00 | 0.10 | 0.10 | 93 | 1012.0 |
| 20260903232059 | 68 | 0 | 0.0 | 2.0 | 0.00 | 0.10 | 0.10 | 92 | 1012.0 |
| 20260903231603 | 69 | 0 | 0.0 | 2.0 | 0.00 | 0.10 | 0.10 | 92 | 1012.1 |
| 20260903231059 | 69 | 0 | 0.0 | 2.0 | 0.01 | 0.10 | 0.10 | 92 | 1012.2 |
| 20260903230559 | 69 | 319 | 0.0 | 2.0 | 0.04 | 0.10 | 0.10 | 92 | 1012.1 |
| 20260903230103 | 69 | 302 | 0.0 | 2.0 | 0.08 | 0.10 | 0.10 | 92 | 1012.2 |
| 20260903225601 | 69 | 289 | 0.0 | 2.0 | 0.09 | 0.10 | 0.10 | 92 | 1012.2 |
| 20260903225103 | 70 | 302 | 0.0 | 1.0 | 0.09 | 0.10 | 0.10 | 92 | 1012.2 |
| 20260903224602 | 70 | 0 | 0.0 | 1.0 | 0.09 | 0.10 | 0.10 | 92 | 1012.3 |
| 20260903224100 | 70 | 0 | 0.0 | 2.0 | 0.09 | 0.10 | 0.10 | 92 | 1012.3 |
| 20260903223601 | 71 | 252 | 0.0 | 2.0 | 0.09 | 0.10 | 0.10 | 91 | 1012.3 |
| 20260903223108 | 71 | 306 | 0.0 | 3.0 | 0.09 | 0.10 | 0.10 | 91 | 1012.4 |
| 20260903222603 | 71 | 0 | 0.0 | 3.0 | 0.09 | 0.10 | 0.10 | 91 | 1012.3 |
| 20260903222059 | 71 | 302 | 0.0 | 3.0 | 0.09 | 0.10 | 0.10 | 91 | 1012.2 |